Tiempo cada hora Alkaladka

Hoy, 30 Julio, Viernes

Tiempo Temperatura Precipitaciones Viento Presión Humedad
00:00 +23°C° 0 mm 1 mps 745 mmHg 66%
01:00 +23°C° 0 mm 1 mps 745 mmHg 66%
02:00 +23°C° 0 mm 1 mps 745 mmHg 66%
03:00 +23°C° 0 mm 1 mps 745 mmHg 67%
04:00 +23°C° 0 mm 1 mps 745 mmHg 67%
05:00 +23°C° 0 mm 1 mps 745 mmHg 67%
06:00 +24°C° 0 mm 1 mps 745 mmHg 67%
07:00 +25°C° 0 mm 2 mps 745 mmHg 62%
08:00 +27°C° 0 mm 2 mps 745 mmHg 58%
09:00 +29°C° 0 mm 2 mps 745 mmHg 53%
10:00 +29°C° 0 mm 3 mps 745 mmHg 52%
11:00 +30°C° 0 mm 4 mps 745 mmHg 51%
12:00 +30°C° 0 mm 5 mps 744 mmHg 50%
13:00 +32°C° 0 mm 5 mps 744 mmHg 50%
14:00 +32°C° 0 mm 5 mps 744 mmHg 50%
15:00 +32°C° 0 mm 5 mps 743 mmHg 50%
16:00 +32°C° 0 mm 5 mps 743 mmHg 51%
17:00 +32°C° 0 mm 4 mps 743 mmHg 52%
18:00 +30°C° 0 mm 4 mps 742 mmHg 53%
19:00 +28°C° 0.7 mm 3 mps 742 mmHg 63%
20:00 +26°C° 0.7 mm 3 mps 743 mmHg 73%
21:00 +22°C° 0.7 mm 3 mps 743 mmHg 83%
22:00 +22°C° 0.6 mm 3 mps 743 mmHg 86%
23:00 +21°C° 0.6 mm 3 mps 743 mmHg 89%

Mañana, 31 Julio, Sábado

Tiempo Temperatura Precipitaciones Viento Presión Humedad
00:00 +20°C° 0.6 mm 3 mps 743 mmHg 92%
01:00 +20°C° 0.2 mm 3 mps 744 mmHg 92%
02:00 +20°C° 0.2 mm 3 mps 744 mmHg 92%
03:00 +20°C° 0.2 mm 3 mps 744 mmHg 93%
04:00 +20°C° 0 mm 3 mps 744 mmHg 92%
05:00 +20°C° 0 mm 3 mps 744 mmHg 91%
06:00 +20°C° 0 mm 3 mps 745 mmHg 90%
07:00 +22°C° 0 mm 4 mps 745 mmHg 80%
08:00 +23°C° 0 mm 4 mps 745 mmHg 71%
09:00 +26°C° 0 mm 4 mps 746 mmHg 62%
10:00 +27°C° 0 mm 4 mps 746 mmHg 54%
11:00 +28°C° 0 mm 5 mps 746 mmHg 47%
12:00 +29°C° 0 mm 5 mps 746 mmHg 39%
13:00 +30°C° 0 mm 4 mps 746 mmHg 38%
14:00 +30°C° 0 mm 4 mps 746 mmHg 36%
15:00 +32°C° 0 mm 4 mps 746 mmHg 35%
16:00 +31°C° 0 mm 3 mps 746 mmHg 37%
17:00 +30°C° 0 mm 3 mps 746 mmHg 39%
18:00 +30°C° 0 mm 2 mps 746 mmHg 41%
19:00 +29°C° 0 mm 2 mps 746 mmHg 43%
20:00 +27°C° 0 mm 2 mps 747 mmHg 45%
21:00 +26°C° 0 mm 3 mps 747 mmHg 46%
22:00 +25°C° 0 mm 2 mps 747 mmHg 49%
23:00 +24°C° 0 mm 2 mps 747 mmHg 51%

Pasado mañana, 1 Agosto, Domingo

Tiempo Temperatura Precipitaciones Viento Presión Humedad
00:00 +23°C° 0 mm 2 mps 747 mmHg 54%
01:00 +23°C° 0 mm 2 mps 748 mmHg 56%
02:00 +22°C° 0 mm 1 mps 748 mmHg 58%
03:00 +22°C° 0 mm 1 mps 748 mmHg 59%
04:00 +22°C° 0 mm 1 mps 748 mmHg 61%
05:00 +22°C° 0 mm 1 mps 749 mmHg 62%
06:00 +23°C° 0 mm 1 mps 749 mmHg 63%
07:00 +24°C° 0 mm 1 mps 749 mmHg 57%
08:00 +26°C° 0 mm 1 mps 749 mmHg 52%
09:00 +28°C° 0 mm 1 mps 749 mmHg 46%
10:00 +30°C° 0 mm 2 mps 749 mmHg 43%
11:00 +31°C° 0 mm 2 mps 749 mmHg 40%
12:00 +33°C° 0 mm 3 mps 749 mmHg 37%
13:00 +34°C° 0 mm 2 mps 749 mmHg 35%
14:00 +34°C° 0 mm 2 mps 749 mmHg 33%
15:00 +35°C° 0 mm 2 mps 748 mmHg 30%
16:00 +35°C° 0 mm 2 mps 748 mmHg 33%
17:00 +34°C° 0 mm 2 mps 748 mmHg 36%
18:00 +34°C° 0 mm 2 mps 748 mmHg 38%
19:00 +31°C° 0 mm 2 mps 748 mmHg 40%
20:00 +29°C° 0 mm 2 mps 748 mmHg 41%
21:00 +27°C° 0 mm 3 mps 748 mmHg 43%
22:00 +26°C° 0 mm 3 mps 748 mmHg 44%
23:00 +26°C° 0 mm 3 mps 748 mmHg 46%

2 Agosto, Lunes

Tiempo Temperatura Precipitaciones Viento Presión Humedad
00:00 +25°C° 0 mm 3 mps 748 mmHg 48%
01:00 +24°C° 0.2 mm 3 mps 748 mmHg 55%
02:00 +22°C° 0.2 mm 3 mps 748 mmHg 61%
03:00 +21°C° 0.2 mm 3 mps 748 mmHg 68%
04:00 +21°C° 0.4 mm 3 mps 748 mmHg 71%
05:00 +21°C° 0.4 mm 3 mps 748 mmHg 75%
06:00 +21°C° 0.4 mm 3 mps 748 mmHg 78%
07:00 +25°C° 0.2 mm 3 mps 748 mmHg 69%
08:00 +27°C° 0.2 mm 4 mps 748 mmHg 59%
09:00 +29°C° 0.2 mm 4 mps 748 mmHg 50%
10:00 +32°C° 0 mm 4 mps 747 mmHg 44%
11:00 +34°C° 0 mm 4 mps 747 mmHg 39%
12:00 +35°C° 0 mm 5 mps 747 mmHg 33%
13:00 +36°C° 0 mm 4 mps 747 mmHg 31%
14:00 +37°C° 0 mm 4 mps 746 mmHg 29%
15:00 +38°C° 0 mm 4 mps 746 mmHg 26%
16:00 +36°C° 0 mm 4 mps 746 mmHg 32%
17:00 +34°C° 0 mm 3 mps 745 mmHg 37%
18:00 +31°C° 0 mm 3 mps 745 mmHg 42%
19:00 +30°C° 0 mm 3 mps 745 mmHg 43%
20:00 +29°C° 0 mm 3 mps 745 mmHg 44%
21:00 +27°C° 0 mm 3 mps 745 mmHg 45%
22:00 +27°C° 0 mm 3 mps 745 mmHg 47%
23:00 +27°C° 0 mm 3 mps 745 mmHg 48%

3 Agosto, Martes

Tiempo Temperatura Precipitaciones Viento Presión Humedad
00:00 +26°C° 0 mm 3 mps 745 mmHg 49%
01:00 +26°C° 0 mm 2 mps 745 mmHg 50%
02:00 +25°C° 0 mm 2 mps 745 mmHg 52%
03:00 +25°C° 0 mm 2 mps 745 mmHg 53%
04:00 +25°C° 0 mm 2 mps 745 mmHg 55%
05:00 +25°C° 0 mm 2 mps 745 mmHg 56%
06:00 +25°C° 0 mm 2 mps 745 mmHg 58%
07:00 +26°C° 0 mm 3 mps 745 mmHg 56%
08:00 +27°C° 0 mm 3 mps 745 mmHg 54%
09:00 +29°C° 0 mm 4 mps 746 mmHg 52%
10:00 +29°C° 0 mm 4 mps 746 mmHg 53%
11:00 +29°C° 0 mm 3 mps 746 mmHg 54%
12:00 +29°C° 0 mm 3 mps 746 mmHg 55%
13:00 +28°C° 0 mm 4 mps 747 mmHg 57%
14:00 +27°C° 0 mm 4 mps 747 mmHg 59%
15:00 +27°C° 0 mm 4 mps 747 mmHg 61%
16:00 +27°C° 0 mm 4 mps 747 mmHg 61%
17:00 +27°C° 0 mm 4 mps 747 mmHg 61%
18:00 +27°C° 0 mm 4 mps 747 mmHg 61%
19:00 +25°C° 0 mm 3 mps 747 mmHg 68%
20:00 +24°C° 0 mm 3 mps 748 mmHg 76%
21:00 +23°C° 0 mm 2 mps 748 mmHg 83%
22:00 +21°C° 0.4 mm 2 mps 748 mmHg 86%
23:00 +21°C° 0.4 mm 2 mps 748 mmHg 90%

4 Agosto, Miércoles

Tiempo Temperatura Precipitaciones Viento Presión Humedad
00:00 +20°C° 0.4 mm 2 mps 748 mmHg 93%
01:00 +20°C° 0 mm 2 mps 748 mmHg 94%
02:00 +19°C° 0 mm 3 mps 748 mmHg 94%
03:00 +19°C° 0 mm 3 mps 749 mmHg 95%
04:00 +19°C° 0 mm 3 mps 749 mmHg 93%
05:00 +19°C° 0 mm 3 mps 749 mmHg 90%
06:00 +18°C° 0 mm 3 mps 750 mmHg 88%
07:00 +20°C° 0 mm 3 mps 750 mmHg 78%
08:00 +22°C° 0 mm 4 mps 750 mmHg 68%
09:00 +25°C° 0 mm 4 mps 750 mmHg 59%
10:00 +26°C° 0 mm 4 mps 751 mmHg 53%
11:00 +27°C° 0 mm 4 mps 751 mmHg 48%
12:00 +28°C° 0 mm 4 mps 751 mmHg 42%
13:00 +29°C° 0 mm 4 mps 751 mmHg 40%
14:00 +30°C° 0 mm 3 mps 751 mmHg 38%
15:00 +30°C° 0 mm 3 mps 750 mmHg 35%
16:00 +30°C° 0 mm 3 mps 751 mmHg 37%
17:00 +29°C° 0 mm 3 mps 751 mmHg 39%
18:00 +29°C° 0 mm 3 mps 751 mmHg 40%
19:00 +27°C° 0 mm 3 mps 751 mmHg 42%
20:00 +26°C° 0 mm 3 mps 751 mmHg 44%
21:00 +25°C° 0 mm 3 mps 751 mmHg 45%
22:00 +24°C° 0 mm 3 mps 751 mmHg 49%
23:00 +22°C° 0 mm 3 mps 752 mmHg 53%
Mostrar más

Necesitamos Su Consentimiento

Meteoprog y nuestros Proveedores de Servicios pueden almacenar y acceder a sus datos personales como cookies, identificadores de dispositivo u otras tecnologías similares de su dispositivo y procesar dichos datos para personalizar contenido y anuncios, además de ofrecer funciones de redes sociales y analizar el tráfico.

  • Almacenar y/o acceder a información en su dispositivo

    Se puede almacenar o acceder a cookies, identificadores de dispositivo u otra información de su dispositivo para los fines anteriormente indicados.

  • Anuncios y contenido personalizados, medición de anuncios y contenido, percepciones del público, y desarrollo de productos

    Los anuncios y el contenido pueden personalizarse en base a su perfil. Se pueden añadir más datos para personalizar mejor los anuncios y contenidos. Se puede medir el rendimiento de los anuncios y contenidos. Se puede obtener la percepción sobre el público que ha visto los anuncios y contenidos. Dichos datos pueden usarse para desarrollar o mejorar la experiencia del usuario, sistemas y software.

Al hacer clic en ‘Estoy De Acuerdo’ usted permitirá el uso de las cookies, identificadores de dispositivo, balizas web u otras tecnologías similares indicadas. Su configuración puede cambiarse desde el navegador de su dispositivo.

Para ciertos fines, los intereses legítimos pueden ser considerados por encima del consentimiento. Puede leer más sobre ello en nuestra Política de Privacidad y Cookies.